CZ-4B DEB, 40533

Orbit data source: Space-Track

CZ-4B DEB, 40533 is space debris in LEO originally from a launch on Fri, 25 Oct 2013 UTC launched from the Jiuquan Satellite Launch Center, China (JSC). Debris objects in space refer to the collection of defunct objects orbiting the Earth. Examples of debris include non-operational satellites, rocket bodies, and fragments generated from explosions, collisions, or faulty payload assembly.

Loading next visibility...
CZ-4B DEB details
Identifier
40533, 2013-057F
Orbit
LEO
Last TLE update2 days ago
Origin
Flag of CNCNSA (CN / PRC)
ManufacturerSAST
MissionSpacecraft
Bus & MotorUnknown
MassUnknown
Launch date (UTC)
2013-10-25 (11 years ago)
Launch vehicleUnknown
Launch site
Jiuquan Satellite Launch Center, China (JSC)
Object type
Payload
Rocket body
Debris
Shape & HBRUnknown
Radar Cross SectionSmall (<0.1 m²)

Expand to show TLE details & history

TLE from 2 days ago
0 CZ-4B DEB
1 40533U 13057F   24346.24048892  .00005883  00000-0  10786-2 0  9995
2 40533  74.9226  74.1068 0182071  46.1073 315.4966 14.55700291512739
Epoch: 2024-12-11T05:46Z
Definitive object data (Epoch: 2024-12-11T05:46:18.242Z)
Latitude-0.00001°
Longitude-92.90722°
Altitude618.932 km
Speed7.598 km/s
True Right ascension04h 56m 25s
True Declination0° 00' 00"
Sunlit
Object was in full shadow at TLE epoch
Visualization TLE readout
Latitude2.06528°
Longitude-96.17366°
Altitude608.285 km
Speed7.609 km/s
Apparent Right ascension01h 46m 08s
Apparent Declination-40° 07' 47"
Sunlit
Object is in full shadow
Visualization observer readout
Local Sidereal Time07:24:23
Azimuth234.604° WSW
Elevation-20.977°
Doppler factor1
Orbital elements
Apogee altitude833.575 km
Perigee altitude575.662 km
Semi-major axis7,082.755 km
Eccentricity0.0182071
Inclination74.9226°
RAAN74.1068°
Arg. of periapsis46.1073°
True anomaly314.0102°
Mean anomaly315.4966°
Eccentric anomaly314.75582°
Mean motion3.64116 °/min
BSTAR0.0010786
Orbital period98.87 mins
Loading maneuver chart data...
Loading historical data...
Loading historical data...
Loading historical data...
Loading historical data...
Loading historical data...
Loading historical data...
Loading historical data...
Other satellites on launch #57 in the year 2013 (2013-10-25 UTC)

CZ-4B DEB Visibility forecast

Observer location: undefined°, undefined

Span
Click to sort rows by Start time (UTC) header in descending order
Start Az.
Max El. time (UTC)
Max El. Az.
Max El.
End time (UTC)
End Az.
6 mins2024-12-13 16:02:42.788Z19.96° NNE2024-12-13 16:05:42.788Z63.046° ENE19.074°2024-12-13 16:08:42.788Z104.137° ESE
7 mins2024-12-13 17:43:42.788Z317.606° NNW2024-12-13 17:46:42.788Z247.946° W34.819°2024-12-13 17:50:42.788Z188.699° SSW
6 mins2024-12-14 06:28:42.788Z171.223° S2024-12-14 06:31:42.788Z86.381° E36.457°2024-12-14 06:34:42.788Z31.725° NE
|